This is the latest recevied weather packets stored in our database for station/object HOWARD. If no packets are shown the sender has not sent any weather packets the latest 10 day(s).
| Time | Temp. | Humidity | Pressure | Rain* | Wind** | Luminosity | Snow |
|---|---|---|---|---|---|---|---|
| 1777923707 | 10° C | 38% | 1009.2 hPa | 0 mm | - | - | - |
| 1777923107 | 10° C | 41% | 1009.3 hPa | 0 mm | - | - | - |
| 1777922507 | 10° C | 45% | 1009.3 hPa | 0 mm | - | - | - |
| 1777921907 | 10° C | 47% | 1009.3 hPa | 0 mm | - | - | - |
| 1777921307 | 10° C | 46% | 1009.4 hPa | 0 mm | - | - | - |
| 1777920707 | 10° C | 46% | 1009.5 hPa | 0 mm | - | - | - |
| 1777920107 | 10° C | 45% | 1009.5 hPa | 0 mm | - | - | - |
| 1777919507 | 9.44° C | 46% | 1009.6 hPa | 0 mm | - | - | - |
| 1777918907 | 10° C | 47% | 1009.4 hPa | 0 mm | - | - | - |
| 1777918307 | 9.44° C | 49% | 1009.5 hPa | 0 mm | - | - | - |
| 1777917707 | 9.44° C | 49% | 1009.5 hPa | 0 mm | - | - | - |
| 1777917107 | 8.89° C | 50% | 1009.4 hPa | 0 mm | - | - | - |
| 1777916507 | 8.89° C | 52% | 1009.4 hPa | 0 mm | - | - | - |
| 1777915907 | 8.89° C | 54% | 1009.3 hPa | 0 mm | - | - | - |
| 1777915307 | 8.89° C | 53% | 1009.2 hPa | 0 mm | - | - | - |
| 1777914707 | 8.33° C | 55% | 1009.2 hPa | 0 mm | - | - | - |
| 1777914106 | 8.89° C | 54% | 1009.3 hPa | 0 mm | - | - | - |
| 1777913507 | 8.33° C | 54% | 1009.2 hPa | 0 mm | - | - | - |
| 1777912906 | 8.89° C | 52% | 1009.4 hPa | 0 mm | - | - | - |
| 1777912307 | 8.33° C | 52% | 1009.1 hPa | 0 mm | - | - | - |
| 1777911707 | 8.33° C | 51% | 1009.2 hPa | 0 mm | - | - | - |
| 1777911106 | 8.33° C | 51% | 1009.2 hPa | 0 mm | - | - | - |
| 1777910508 | 8.33° C | 51% | 1009.2 hPa | 0 mm | - | - | - |
| 1777909906 | 8.33° C | 52% | 1009.1 hPa | 0 mm | - | - | - |
| 1777909306 | 7.78° C | 51% | 1009.2 hPa | 0 mm | - | - | - |
* Rain latest hour (hover to see other rain measurements)
** Current wind speed in m/s (hover to see current wind gust speed)